CW9454 Weather Reports


Display with metric or nautical units.
time (UTC)temp
F
wind
direction
speed
MPH
gust
MPH
rain 1hr
in
rain 24hr
in
rain mn
in
humidity
%
barometer
mb
20260904171030 87 284 1.0 5.0 0.00 0.06 0.06 65 1013.5
20260904170017 87 340 2.0 5.0 0.00 0.06 0.06 67 1013.6
20260904165031 86 327 1.0 6.0 0.00 0.06 0.06 68 1013.7
20260904164024 86 300 2.0 6.0 0.00 0.06 0.06 68 1013.8
20260904163017 86 254 2.0 7.0 0.00 0.06 0.06 68 1014.0
20260904162030 86 263 2.0 8.0 0.00 0.06 0.06 68 1014.2
20260904161018 87 277 0.0 8.0 0.00 0.06 0.06 67 1014.2
20260904160036 87 265 1.0 4.0 0.00 0.06 0.06 67 1014.1
20260904155028 87 242 1.0 5.0 0.00 0.06 0.06 66 1014.2
20260904154023 87 250 1.0 8.0 0.00 0.06 0.06 68 1014.4
20260904153038 86 270 1.0 5.0 0.00 0.06 0.06 71 1014.4
20260904152031 85 245 2.0 5.0 0.00 0.06 0.06 70 1014.4
20260904151016 85 331 0.0 5.0 0.00 0.06 0.06 73 1014.5
20260904150027 84 315 0.0 4.0 0.00 0.06 0.06 74 1014.3
20260904145042 82 309 0.0 5.0 0.00 0.06 0.06 76 1014.5
20260904144035 81 273 0.0 3.0 0.00 0.06 0.06 79 1014.5
20260904143028 79 281 0.0 5.0 0.00 0.06 0.06 83 1014.4
20260904142023 78 292 0.0 8.0 0.00 0.06 0.06 86 1014.5
20260904141038 77 263 0.0 4.0 0.00 0.06 0.06 88 1014.6
20260904140045 76 315 0.0 4.0 0.00 0.06 0.06 91 1014.4
20260904135018 75 312 0.0 5.0 0.00 0.06 0.06 93 1014.5
20260904134031 75 286 0.0 4.0 0.00 0.06 0.06 94 1014.6
20260904133025 74 279 0.0 2.0 0.00 0.06 0.06 94 1014.4
20260904132039 74 275 1.0 6.0 0.00 0.06 0.06 95 1014.2
20260904131034 73 251 0.0 2.0 0.00 0.06 0.06 95 1014.2
20260904130041 73 249 0.0 0.0 0.00 0.06 0.06 95 1014.3
20260904125014 73 249 0.0 2.0 0.00 0.06 0.06 95 1014.4
20260904124028 73 249 0.0 1.0 0.00 0.06 0.06 95 1014.6
20260904123013 73 249 0.0 2.0 0.00 0.06 0.06 95 1014.7
20260904122057 72 248 0.0 4.0 0.00 0.06 0.06 95 1014.6
20260904121051 72 242 1.0 5.0 0.00 0.06 0.06 95 1014.7
20260904120016 72 246 0.0 1.0 0.00 0.06 0.06 94 1014.5
20260904115027 72 245 0.0 0.0 0.00 0.06 0.06 94 1014.4
20260904114021 72 245 0.0 0.0 0.00 0.06 0.06 94 1014.4
20260904113035 72 245 0.0 0.0 0.00 0.06 0.06 94 1014.4
20260904112019 72 245 0.0 0.0 0.00 0.06 0.06 94 1014.3
20260904111041 72 245 0.0 0.0 0.00 0.06 0.06 94 1013.9
20260904110019 72 245 0.0 2.0 0.01 0.06 0.06 94 1013.9
20260904105014 72 244 0.0 0.0 0.01 0.06 0.06 94 1013.8
20260904104028 72 244 0.0 0.0 0.01 0.06 0.06 94 1013.8
20260904103024 72 244 0.0 0.0 0.01 0.06 0.06 94 1013.7
20260904102037 72 244 0.0 0.0 0.01 0.06 0.06 94 1013.6
20260904101030 72 244 0.0 4.0 0.01 0.06 0.06 94 1013.8
20260904100017 72 247 0.0 4.0 0.00 0.05 0.05 94 1014.2
20260904095031 72 215 0.0 4.0 0.00 0.05 0.05 94 1014.3
20260904094046 72 162 0.0 3.0 0.00 0.05 0.05 93 1013.7
20260904093020 72 159 0.0 0.0 0.00 0.05 0.05 93 1013.2
20260904092014 72 159 0.0 0.0 0.00 0.05 0.05 93 1013.3
20260904091030 72 159 0.0 0.0 0.00 0.05 0.05 93 1013.3
20260904090016 72 159 0.0 0.0 0.00 0.05 0.05 93 1013.5
20260904085029 72 159 0.0 0.0 0.00 0.05 0.05 93 1013.5
20260904084024 72 159 0.0 0.0 0.00 0.05 0.05 93 1013.4
20260904083037 72 159 0.0 0.0 0.00 0.05 0.05 93 1013.4
20260904082032 72 159 0.0 0.0 0.00 0.05 0.05 93 1013.5
20260904081016 73 159 0.0 0.0 0.00 0.05 0.05 93 1013.8
20260904080031 73 146 0.0 0.0 0.00 0.05 0.05 93 1013.7
20260904075017 73 146 0.0 2.0 0.00 0.05 0.05 92 1013.9
20260904074032 73 120 0.0 1.0 0.00 0.05 0.05 92 1014.0
20260904073027 73 119 0.0 2.0 0.00 0.05 0.05 92 1013.8
20260904072036 73 153 0.0 0.0 0.00 0.05 0.05 92 1013.7
20260904071030 73 153 0.0 0.0 0.00 0.05 0.05 92 1013.8
20260904070018 73 153 0.0 0.0 0.00 0.05 0.05 91 1013.5
20260904065031 73 153 0.0 2.0 0.00 0.05 0.05 91 1013.7
20260904064026 73 211 0.0 1.0 0.00 0.05 0.05 90 1013.6
20260904063019 73 212 0.0 2.0 0.00 0.05 0.05 90 1013.5
20260904062034 74 243 0.0 0.0 0.00 0.05 0.05 90 1013.5
20260904061030 74 243 0.0 7.0 0.00 0.05 0.05 89 1013.3
20260904060037 74 247 1.0 4.0 0.00 0.05 0.05 89 1013.3
20260904055032 75 240 0.0 2.0 0.01 0.05 0.05 87 1012.8
20260904054016 75 240 0.0 0.0 0.02 0.05 0.05 87 1012.7
20260904053031 75 240 0.0 3.0 0.05 0.05 0.05 86 1012.9
20260904052025 76 193 0.0 6.0 0.05 0.05 0.05 85 1013.1
20260904051016 77 235 0.0 0.0 0.05 0.05 0.05 83 1013.3
20260904050024 78 235 0.0 0.0 0.05 0.05 0.05 82 1013.6
20260904045018 79 234 0.0 0.0 0.03 0.03 0.03 79 1014.1
20260904044032 80 236 0.0 8.0 0.03 0.03 0.03 78 1013.9
20260904043027 81 279 3.0 14.0 0.00 0.00 0.00 77 1014.7
20260904042041 82 264 3.0 6.0 0.00 0.00 0.00 76 1014.4
20260904041035 82 273 0.0 3.0 0.00 0.00 0.00 75 1013.4
20260904040021 82 274 1.0 6.0 0.00 0.00 0.00 76 1013.2
20260904035035 82 253 2.0 8.0 0.00 0.00 0.00 79 1012.8
20260904034020 82 318 1.0 11.0 0.00 0.00 0.00 83 1013.2
20260904033014 82 258 3.0 14.0 0.00 0.00 0.00 84 1013.7
20260904032027 82 221 0.0 0.0 0.00 0.00 0.00 85 1013.5
20260904031040 82 221 0.0 0.0 0.00 0.00 0.00 85 1013.5
20260904030037 82 221 0.0 0.0 0.00 0.00 0.00 85 1013.6
20260904025021 82 221 0.0 0.0 0.00 0.00 0.00 85 1013.5
20260904024016 82 221 0.0 3.0 0.00 0.00 0.00 85 1013.7
20260904023025 82 217 0.0 2.0 0.00 0.00 0.00 85 1013.8
20260904022018 83 215 0.0 0.0 0.00 0.00 0.00 84 1013.5
20260904021033 83 215 0.0 0.0 0.00 0.00 0.00 84 1013.6
20260904020024 83 215 0.0 2.0 0.00 0.00 0.00 85 1013.5
20260904015018 82 184 0.0 0.0 0.00 0.00 0.00 85 1013.5
20260904014032 82 184 0.0 3.0 0.00 0.00 0.00 85 1013.3
20260904013017 82 184 1.0 5.0 0.00 0.00 0.00 85 1013.2
20260904012043 82 180 0.0 0.0 0.00 0.00 0.00 84 1013.3
20260904011057 83 180 0.0 0.0 0.00 0.00 0.00 84 1013.5
20260904010023 83 180 0.0 0.0 0.00 0.00 0.00 83 1013.7
20260904005040 83 180 0.0 0.0 0.00 0.00 0.00 83 1013.9
20260904004054 83 180 0.0 0.0 0.00 0.00 0.00 82 1014.0
20260904003018 83 180 0.0 0.0 0.00 0.00 0.00 82 1013.9
20260904002040 84 180 0.0 0.0 0.00 0.00 0.00 81 1014.2
20260904001025 84 180 0.0 0.0 0.00 0.00 0.00 80 1014.0
20260904000040 84 180 0.0 0.0 0.00 0.00 0.00 80 1013.8
20260903235026 85 180 0.0 0.0 0.00 0.00 0.00 80 1013.6
20260903234020 86 180 0.0 0.0 0.00 0.00 0.00 79 1013.6
20260903233014 87 180 0.0 0.0 0.00 0.00 0.00 77 1013.4
20260903232028 87 180 0.0 0.0 0.00 0.00 0.00 76 1013.2
20260903231023 88 180 0.0 0.0 0.00 0.00 0.00 74 1013.3
20260903230031 89 180 0.0 0.0 0.00 0.00 0.00 73 1013.2
20260903225025 90 180 0.0 0.0 0.00 0.00 0.00 71 1013.1
20260903224040 91 180 0.0 0.0 0.00 0.00 0.00 70 1013.2
20260903223025 91 180 0.0 0.0 0.00 0.00 0.00 68 1013.3
20260903222020 91 180 0.0 0.0 0.00 0.00 0.00 66 1013.2
20260903221014 91 231 0.0 0.0 0.00 0.00 0.00 67 1013.1
20260903220022 92 231 0.0 0.0 0.00 0.00 0.00 65 1013.2
20260903215101 92 231 0.0 0.0 0.00 0.00 0.00 65 1013.3
20260903214025 92 242 0.0 4.0 0.00 0.00 0.00 65 1013.3
20260903213018 92 245 1.0 7.0 0.00 0.00 0.00 63 1013.2
20260903212032 92 244 3.0 9.0 0.00 0.00 0.00 63 1013.3
20260903211026 91 261 3.0 11.0 0.00 0.00 0.00 64 1013.1
20260903210013 90 244 0.0 5.0 0.00 0.00 0.00 66 1013.2
20260903205047 89 254 1.0 5.0 0.00 0.00 0.00 66 1013.4
20260903204019 89 270 0.0 4.0 0.00 0.00 0.00 66 1013.7
20260903203013 89 242 0.0 4.0 0.00 0.00 0.00 65 1013.6
20260903202026 89 230 2.0 8.0 0.00 0.00 0.00 66 1013.8
20260903201021 89 243 0.0 7.0 0.00 0.00 0.00 66 1014.1
20260903200028 89 240 2.0 7.0 0.00 0.00 0.00 64 1014.1
20260903195043 89 250 1.0 7.0 0.00 0.00 0.00 64 1014.4
20260903194032 89 259 0.0 7.0 0.00 0.00 0.00 65 1014.6
20260903193026 89 271 2.0 9.0 0.00 0.00 0.00 64 1014.7
20260903192040 89 284 3.0 10.0 0.00 0.00 0.00 64 1014.8
20260903191052 89 313 2.0 9.0 0.00 0.00 0.00 64 1015.0
20260903190017 89 292 3.0 11.0 0.00 0.00 0.00 63 1015.0
20260903185057 89 254 1.0 7.0 0.00 0.01 0.00 66 1014.9
20260903184022 88 300 3.0 12.0 0.00 0.01 0.00 66 1015.0
20260903183016 87 277 3.0 8.0 0.00 0.01 0.00 70 1014.9
20260903182031 87 236 2.0 8.0 0.00 0.01 0.00 73 1014.9
20260903181044 86 262 1.0 10.0 0.00 0.01 0.00 72 1015.1
20260903180038 85 268 4.0 10.0 0.00 0.01 0.00 73 1015.5
20260903175022 84 246 4.0 10.0 0.00 0.32 0.00 76 1015.5
20260903174037 84 257 2.0 10.0 0.00 0.32 0.00 84 1015.5
20260903173040 82 254 3.0 9.0 0.00 0.32 0.00 87 1015.7
20260903172025 81 229 1.0 6.0 0.00 0.32 0.00 89 1015.7